sat.trackr.live / text

‹ back to catalog

STARLINK-33680

NORAD 63287 · 2025-053Y

PAYLOAD ACTIVE UNKNOWN

§ Identity

Operator
Country
US
Launch date
2025-03-15
Launch site
AFETR
Launch vehicle
Mass (kg)
RCS (m²)

Purposes: comms

External: N2YO · Heavens-Above · Gunter

§ Orbital elements

Epoch: 2026-09-20T21:51:11.041344Z

Period
94.27 min
Inclination
42.9999°
Eccentricity
0.0000949
Mean motion
15.27589635 rev/d
Perigee alt
482.4 km
Apogee alt
483.7 km
Semi-major
6,861.2 km
B*
4.1791e-4
RAAN
218.9512°
Arg perigee
263.7411°
Mean anomaly
96.3333°
Rev number
8,610

§ Raw data

STARLINK-336801 63287U 25053Y   26263.91054446  .00011259  00000+0  41791-3 0  99952 63287  42.9999 218.9512 0000949 263.7411  96.3333 15.27589635 86107

JSON: /api/v1/satellites/63287 · /tle

For live sub-satellite position, see the globe view (requires WebGL).

§ Visibility from observer

Set your observer location to see the next 7 days of passes ≥ 10°. The values pass through the URL so the page stays shareable.

No JS? Fill the form by hand. The geolocation button needs JavaScript.